Retour au catalogue

ONEWEB-0289

ActifCommunicationsPO
NORAD 49079·PAYLOAD·🇬🇧 United Kingdom

Lancé Aug 21, 2021 depuis Baikonur Cosmodrome

Loading…

Prochains Passages (prochaines 24 heures)

TLE

FraisSource: CelesTrak SupGP

Époque: Sep 14, 2026, 17:57 UTC

1 49079C 21075E   26257.74809446  .00000729  00000+0  18806-2 0  2577
2 49079  87.9190 348.0965 0001502  97.0405 328.9245 13.17648590    11

Suivez ONEWEB-0289 en temps réel avec AllMySat

Download on the App Store